When you browse on this site, cookies collect data to enhance your experience and personalize the content and advertising you see.
Visit our Privacy Policy to learn more. By continuing to use the site, you agree to this use of cookies and data.
  • In Romania
  • List of Countries
  • For 7 days
  • Water Temperature
  • Weather Map
  • Weather Widgets
  • user-avatar
    Login

    Hourly Weather La-Plata

    Today, 31 May, Sunday

    Time Temperature Precipitation Wind Pressure Humidity
    00:00 +6°C° 0 mm 9 mps 760 mmHg 64%
    01:00 +6°C° 0 mm 9 mps 760 mmHg 63%
    02:00 +6°C° 0 mm 9 mps 760 mmHg 62%
    03:00 +6°C° 0 mm 10 mps 760 mmHg 63%
    04:00 +6°C° 0 mm 10 mps 760 mmHg 63%
    05:00 +6°C° 0 mm 10 mps 760 mmHg 64%
    06:00 +6°C° 0 mm 9 mps 760 mmHg 65%
    07:00 +6°C° 0 mm 9 mps 761 mmHg 67%
    08:00 +6°C° 0 mm 9 mps 761 mmHg 68%
    09:00 +7°C° 0 mm 9 mps 761 mmHg 65%
    10:00 +8°C° 0 mm 9 mps 761 mmHg 62%
    11:00 +10°C° 0 mm 9 mps 761 mmHg 59%
    12:00 +11°C° 0 mm 8 mps 761 mmHg 57%
    13:00 +11°C° 0 mm 8 mps 761 mmHg 54%
    14:00 +12°C° 0 mm 7 mps 761 mmHg 52%
    15:00 +11°C° 0 mm 6 mps 762 mmHg 55%
    16:00 +10°C° 0 mm 6 mps 762 mmHg 58%
    17:00 +9°C° 0 mm 5 mps 762 mmHg 61%
    18:00 +9°C° 0 mm 5 mps 763 mmHg 61%
    19:00 +9°C° 0 mm 5 mps 763 mmHg 61%
    20:00 +8°C° 0 mm 5 mps 764 mmHg 62%
    21:00 +8°C° 0 mm 5 mps 764 mmHg 63%
    22:00 +7°C° 0 mm 4 mps 763 mmHg 65%
    23:00 +7°C° 0 mm 4 mps 763 mmHg 66%

    Tomorrow, 1 June, Monday

    Time Temperature Precipitation Wind Pressure Humidity
    00:00 +6°C° 0 mm 4 mps 764 mmHg 69%
    01:00 +6°C° 0 mm 5 mps 764 mmHg 73%
    02:00 +5°C° 0 mm 5 mps 764 mmHg 76%
    03:00 +5°C° 0 mm 5 mps 764 mmHg 80%
    04:00 +5°C° 0 mm 4 mps 764 mmHg 83%
    05:00 +4°C° 0 mm 4 mps 764 mmHg 86%
    06:00 +4°C° 0 mm 4 mps 764 mmHg 85%
    07:00 +5°C° 0 mm 4 mps 765 mmHg 84%
    08:00 +5°C° 0 mm 4 mps 765 mmHg 83%
    09:00 +7°C° 0 mm 4 mps 765 mmHg 74%
    10:00 +10°C° 0 mm 4 mps 766 mmHg 65%
    11:00 +12°C° 0 mm 3 mps 766 mmHg 57%
    12:00 +12°C° 0 mm 3 mps 765 mmHg 54%
    13:00 +13°C° 0 mm 3 mps 765 mmHg 51%
    14:00 +14°C° 0 mm 2 mps 765 mmHg 48%
    15:00 +13°C° 0 mm 2 mps 764 mmHg 52%
    16:00 +12°C° 0 mm 2 mps 764 mmHg 56%
    17:00 +10°C° 0 mm 1 mps 764 mmHg 61%
    18:00 +10°C° 0 mm 1 mps 764 mmHg 63%
    19:00 +9°C° 0 mm 1 mps 765 mmHg 66%
    20:00 +8°C° 0 mm 1 mps 765 mmHg 69%
    21:00 +7°C° 0 mm 0 mps 765 mmHg 70%
    22:00 +7°C° 0 mm 0 mps 765 mmHg 71%
    23:00 +7°C° 0 mm 0 mps 765 mmHg 72%

    Day after tomorrow, 2 June, Tuesday

    Time Temperature Precipitation Wind Pressure Humidity
    00:00 +8°C° 0 mm 1 mps 765 mmHg 72%
    01:00 +7°C° 0 mm 1 mps 765 mmHg 73%
    02:00 +7°C° 0 mm 1 mps 765 mmHg 73%
    03:00 +6°C° 0 mm 2 mps 764 mmHg 74%
    04:00 +6°C° 0 mm 2 mps 764 mmHg 75%
    05:00 +6°C° 0 mm 2 mps 764 mmHg 76%
    06:00 +7°C° 0 mm 3 mps 764 mmHg 75%
    07:00 +7°C° 0 mm 3 mps 764 mmHg 74%
    08:00 +8°C° 0 mm 3 mps 764 mmHg 73%
    09:00 +8°C° 0 mm 4 mps 764 mmHg 66%
    10:00 +11°C° 0 mm 4 mps 764 mmHg 59%
    11:00 +13°C° 0 mm 5 mps 764 mmHg 52%
    12:00 +13°C° 0 mm 5 mps 763 mmHg 51%
    13:00 +14°C° 0 mm 5 mps 763 mmHg 49%
    14:00 +14°C° 0 mm 5 mps 762 mmHg 48%
    15:00 +13°C° 0 mm 4 mps 762 mmHg 53%
    16:00 +12°C° 0 mm 4 mps 762 mmHg 58%
    17:00 +11°C° 0 mm 4 mps 761 mmHg 63%
    18:00 +11°C° 0 mm 4 mps 762 mmHg 65%
    19:00 +10°C° 0 mm 4 mps 762 mmHg 68%
    20:00 +10°C° 0 mm 3 mps 762 mmHg 70%
    21:00 +10°C° 0 mm 3 mps 762 mmHg 71%
    22:00 +10°C° 0 mm 3 mps 762 mmHg 72%
    23:00 +10°C° 0 mm 3 mps 762 mmHg 73%

    3 June, Wednesday

    Time Temperature Precipitation Wind Pressure Humidity
    00:00 +10°C° 0 mm 3 mps 762 mmHg 75%
    01:00 +10°C° 0 mm 2 mps 763 mmHg 76%
    02:00 +9°C° 0 mm 2 mps 763 mmHg 78%
    03:00 +9°C° 0 mm 2 mps 763 mmHg 78%
    04:00 +10°C° 0 mm 1 mps 763 mmHg 79%
    05:00 +9°C° 0 mm 1 mps 763 mmHg 79%
    06:00 +10°C° 0 mm 1 mps 764 mmHg 78%
    07:00 +10°C° 0 mm 1 mps 764 mmHg 76%
    08:00 +10°C° 0 mm 1 mps 765 mmHg 75%
    09:00 +12°C° 0 mm 1 mps 765 mmHg 69%
    10:00 +13°C° 0 mm 1 mps 766 mmHg 64%
    11:00 +14°C° 0 mm 2 mps 766 mmHg 58%
    12:00 +15°C° 0 mm 2 mps 766 mmHg 56%
    13:00 +14°C° 0 mm 3 mps 766 mmHg 55%
    14:00 +14°C° 0 mm 3 mps 766 mmHg 53%
    15:00 +13°C° 0 mm 4 mps 766 mmHg 59%
    16:00 +12°C° 0 mm 4 mps 766 mmHg 65%
    17:00 +10°C° 0 mm 5 mps 766 mmHg 72%
    18:00 +10°C° 0 mm 5 mps 767 mmHg 75%
    19:00 +10°C° 0 mm 5 mps 767 mmHg 79%
    20:00 +9°C° 0 mm 5 mps 767 mmHg 83%
    21:00 +10°C° 0 mm 4 mps 768 mmHg 86%
    22:00 +10°C° 0 mm 4 mps 768 mmHg 88%
    23:00 +10°C° 0 mm 4 mps 768 mmHg 90%

    4 June, Thursday

    Time Temperature Precipitation Wind Pressure Humidity
    00:00 +10°C° 0 mm 4 mps 769 mmHg 91%
    01:00 +10°C° 0 mm 4 mps 769 mmHg 91%
    02:00 +8°C° 0 mm 4 mps 769 mmHg 92%
    03:00 +8°C° 0 mm 4 mps 769 mmHg 92%
    04:00 +8°C° 0 mm 4 mps 769 mmHg 92%
    05:00 +9°C° 0 mm 3 mps 769 mmHg 92%
    06:00 +9°C° 0 mm 3 mps 769 mmHg 92%
    07:00 +9°C° 0 mm 3 mps 769 mmHg 92%
    08:00 +9°C° 0 mm 3 mps 769 mmHg 92%
    09:00 +11°C° 0 mm 3 mps 769 mmHg 84%
    10:00 +13°C° 0 mm 4 mps 769 mmHg 77%
    11:00 +15°C° 0 mm 4 mps 769 mmHg 69%
    12:00 +15°C° 0 mm 5 mps 768 mmHg 66%
    13:00 +15°C° 0 mm 5 mps 768 mmHg 63%
    14:00 +16°C° 0 mm 6 mps 767 mmHg 60%
    15:00 +14°C° 0 mm 6 mps 767 mmHg 67%
    16:00 +13°C° 0 mm 6 mps 767 mmHg 73%
    17:00 +11°C° 0 mm 6 mps 767 mmHg 80%
    18:00 +10°C° 0 mm 6 mps 767 mmHg 84%
    19:00 +10°C° 0 mm 6 mps 767 mmHg 88%
    20:00 +10°C° 0 mm 6 mps 766 mmHg 91%
    21:00 +10°C° 0 mm 5 mps 766 mmHg 92%
    22:00 +10°C° 0 mm 5 mps 766 mmHg 93%
    23:00 +11°C° 0 mm 4 mps 766 mmHg 94%

    5 June, Friday

    Time Temperature Precipitation Wind Pressure Humidity
    00:00 +11°C° 0 mm 4 mps 766 mmHg 93%
    01:00 +11°C° 0 mm 4 mps 765 mmHg 91%
    02:00 +10°C° 0 mm 4 mps 765 mmHg 90%
    03:00 +10°C° 0 mm 4 mps 764 mmHg 90%
    04:00 +9°C° 0 mm 5 mps 764 mmHg 90%
    05:00 +9°C° 0 mm 5 mps 763 mmHg 89%
    06:00 +10°C° 0 mm 6 mps 763 mmHg 89%
    07:00 +11°C° 0 mm 6 mps 763 mmHg 88%
    08:00 +11°C° 0 mm 7 mps 763 mmHg 87%
    09:00 +12°C° 0 mm 8 mps 762 mmHg 83%
    10:00 +13°C° 0 mm 8 mps 762 mmHg 79%
    11:00 +15°C° 0 mm 8 mps 761 mmHg 75%
    12:00 +15°C° 0.2 mm 9 mps 761 mmHg 73%
    13:00 +16°C° 0.2 mm 10 mps 760 mmHg 72%
    14:00 +16°C° 0.2 mm 10 mps 759 mmHg 70%
    15:00 +14°C° 0.8 mm 11 mps 758 mmHg 74%
    16:00 +14°C° 0.8 mm 11 mps 758 mmHg 77%
    17:00 +13°C° 0.8 mm 11 mps 758 mmHg 81%
    18:00 +13°C° 0.2 mm 11 mps 758 mmHg 82%
    19:00 +13°C° 0.2 mm 11 mps 758 mmHg 84%
    20:00 +13°C° 0.2 mm 10 mps 758 mmHg 85%
    21:00 +13°C° 0.5 mm 10 mps 758 mmHg 86%
    22:00 +13°C° 0.5 mm 9 mps 758 mmHg 88%
    23:00 +13°C° 0.5 mm 9 mps 758 mmHg 90%
    Show more